When you browse on this site, cookies collect data to enhance your experience and personalize the content and advertising you see.
Visit our Privacy Policy to learn more. By continuing to use the site, you agree to this use of cookies and data.

Tiempo cada hora Gjirokaster

Hoy, 7 Julio, Martes

Tiempo Temperatura Precipitaciones Viento Presión Humedad
00:00 +15°C° 0 mm 2 mps 646 mmHg 77%
01:00 +15°C° 0 mm 2 mps 646 mmHg 78%
02:00 +15°C° 0 mm 2 mps 646 mmHg 77%
03:00 +14°C° 0 mm 1 mps 645 mmHg 76%
04:00 +14°C° 0 mm 1 mps 645 mmHg 75%
05:00 +16°C° 0 mm 1 mps 646 mmHg 70%
06:00 +19°C° 0 mm 1 mps 646 mmHg 65%
07:00 +19°C° 0 mm 2 mps 647 mmHg 59%
08:00 +22°C° 0 mm 1 mps 648 mmHg 53%
09:00 +24°C° 0 mm 1 mps 648 mmHg 47%
10:00 +25°C° 0 mm 1 mps 649 mmHg 41%
11:00 +26°C° 0 mm 2 mps 649 mmHg 41%
12:00 +26°C° 0 mm 2 mps 649 mmHg 41%
13:00 +26°C° 0 mm 3 mps 650 mmHg 41%
14:00 +26°C° 0 mm 3 mps 650 mmHg 44%
15:00 +25°C° 0 mm 3 mps 649 mmHg 47%
16:00 +25°C° 0 mm 3 mps 649 mmHg 49%
17:00 +22°C° 0 mm 3 mps 649 mmHg 56%
18:00 +21°C° 0 mm 3 mps 649 mmHg 62%
19:00 +19°C° 0 mm 3 mps 649 mmHg 69%
20:00 +18°C° 0 mm 3 mps 649 mmHg 69%
21:00 +17°C° 0 mm 3 mps 650 mmHg 70%
22:00 +16°C° 0 mm 3 mps 650 mmHg 70%
23:00 +16°C° 0 mm 3 mps 650 mmHg 71%

Mañana, 8 Julio, Miércoles

Tiempo Temperatura Precipitaciones Viento Presión Humedad
00:00 +16°C° 0 mm 2 mps 650 mmHg 73%
01:00 +15°C° 0 mm 2 mps 650 mmHg 74%
02:00 +15°C° 0 mm 2 mps 650 mmHg 76%
03:00 +14°C° 0 mm 2 mps 650 mmHg 78%
04:00 +14°C° 0 mm 2 mps 650 mmHg 80%
05:00 +15°C° 0 mm 2 mps 650 mmHg 75%
06:00 +16°C° 0 mm 2 mps 651 mmHg 71%
07:00 +19°C° 0 mm 1 mps 652 mmHg 66%
08:00 +21°C° 0 mm 1 mps 652 mmHg 61%
09:00 +22°C° 0 mm 1 mps 653 mmHg 56%
10:00 +24°C° 0 mm 1 mps 654 mmHg 51%
11:00 +24°C° 0 mm 1 mps 654 mmHg 49%
12:00 +25°C° 0 mm 2 mps 654 mmHg 47%
13:00 +25°C° 0 mm 2 mps 654 mmHg 45%
14:00 +25°C° 0 mm 2 mps 654 mmHg 48%
15:00 +24°C° 0 mm 3 mps 654 mmHg 50%
16:00 +24°C° 0 mm 3 mps 654 mmHg 52%
17:00 +21°C° 0 mm 2 mps 653 mmHg 58%
18:00 +19°C° 0 mm 2 mps 653 mmHg 64%
19:00 +19°C° 0 mm 1 mps 653 mmHg 71%
20:00 +18°C° 0 mm 1 mps 653 mmHg 71%
21:00 +16°C° 0 mm 1 mps 653 mmHg 72%
22:00 +16°C° 0 mm 1 mps 653 mmHg 73%
23:00 +15°C° 0 mm 1 mps 653 mmHg 74%

Pasado mañana, 9 Julio, Jueves

Tiempo Temperatura Precipitaciones Viento Presión Humedad
00:00 +15°C° 0 mm 1 mps 653 mmHg 75%
01:00 +15°C° 0 mm 1 mps 653 mmHg 77%
02:00 +15°C° 0 mm 1 mps 653 mmHg 78%
03:00 +15°C° 0 mm 1 mps 653 mmHg 79%
04:00 +14°C° 0 mm 1 mps 653 mmHg 81%
05:00 +16°C° 0 mm 1 mps 653 mmHg 76%
06:00 +18°C° 0 mm 1 mps 654 mmHg 71%
07:00 +18°C° 0 mm 0 mps 654 mmHg 65%
08:00 +21°C° 0 mm 1 mps 655 mmHg 61%
09:00 +23°C° 0 mm 1 mps 655 mmHg 57%
10:00 +24°C° 0 mm 1 mps 656 mmHg 53%
11:00 +24°C° 0 mm 1 mps 655 mmHg 53%
12:00 +24°C° 0 mm 2 mps 655 mmHg 53%
13:00 +24°C° 0 mm 2 mps 655 mmHg 53%
14:00 +24°C° 0 mm 3 mps 655 mmHg 54%
15:00 +22°C° 0 mm 3 mps 654 mmHg 55%
16:00 +22°C° 0 mm 3 mps 654 mmHg 57%
17:00 +21°C° 0 mm 2 mps 654 mmHg 61%
18:00 +20°C° 0 mm 2 mps 654 mmHg 66%
19:00 +19°C° 0 mm 1 mps 653 mmHg 71%
20:00 +19°C° 0 mm 1 mps 653 mmHg 71%
21:00 +18°C° 0 mm 1 mps 653 mmHg 72%
22:00 +16°C° 0 mm 1 mps 653 mmHg 72%
23:00 +16°C° 0 mm 1 mps 653 mmHg 71%

10 Julio, Viernes

Tiempo Temperatura Precipitaciones Viento Presión Humedad
00:00 +16°C° 0 mm 1 mps 653 mmHg 71%
01:00 +16°C° 0 mm 1 mps 653 mmHg 71%
02:00 +15°C° 0 mm 1 mps 653 mmHg 71%
03:00 +15°C° 0 mm 1 mps 652 mmHg 72%
04:00 +15°C° 0 mm 1 mps 652 mmHg 72%
05:00 +16°C° 0 mm 1 mps 653 mmHg 68%
06:00 +19°C° 0 mm 1 mps 653 mmHg 63%
07:00 +20°C° 0 mm 1 mps 654 mmHg 59%
08:00 +22°C° 0 mm 1 mps 654 mmHg 54%
09:00 +23°C° 0 mm 1 mps 654 mmHg 48%
10:00 +25°C° 0 mm 1 mps 655 mmHg 43%
11:00 +25°C° 0 mm 1 mps 655 mmHg 42%
12:00 +25°C° 0 mm 1 mps 655 mmHg 41%
13:00 +26°C° 0 mm 2 mps 655 mmHg 40%
14:00 +25°C° 0 mm 2 mps 654 mmHg 44%
15:00 +25°C° 0 mm 2 mps 654 mmHg 47%
16:00 +24°C° 0 mm 2 mps 653 mmHg 51%
17:00 +21°C° 0 mm 2 mps 653 mmHg 58%
18:00 +21°C° 0 mm 1 mps 653 mmHg 64%
19:00 +19°C° 0 mm 1 mps 652 mmHg 71%
20:00 +19°C° 0 mm 1 mps 652 mmHg 72%
21:00 +18°C° 0 mm 1 mps 652 mmHg 73%
22:00 +16°C° 0 mm 1 mps 652 mmHg 74%
23:00 +16°C° 0 mm 1 mps 652 mmHg 74%

11 Julio, Sábado

Tiempo Temperatura Precipitaciones Viento Presión Humedad
00:00 +16°C° 0 mm 1 mps 652 mmHg 74%
01:00 +15°C° 0 mm 1 mps 652 mmHg 74%
02:00 +15°C° 0 mm 1 mps 652 mmHg 73%
03:00 +15°C° 0 mm 1 mps 652 mmHg 72%
04:00 +15°C° 0 mm 1 mps 651 mmHg 71%
05:00 +16°C° 0 mm 1 mps 652 mmHg 67%
06:00 +19°C° 0 mm 1 mps 652 mmHg 62%
07:00 +20°C° 0 mm 1 mps 653 mmHg 57%
08:00 +22°C° 0 mm 1 mps 653 mmHg 53%
09:00 +23°C° 0 mm 1 mps 654 mmHg 49%
10:00 +25°C° 0 mm 1 mps 654 mmHg 45%
11:00 +25°C° 0.3 mm 1 mps 654 mmHg 44%
12:00 +25°C° 0.3 mm 2 mps 654 mmHg 44%
13:00 +25°C° 0.3 mm 2 mps 654 mmHg 43%
14:00 +25°C° 0.1 mm 2 mps 654 mmHg 46%
15:00 +24°C° 0.1 mm 2 mps 653 mmHg 49%
16:00 +24°C° 0.1 mm 3 mps 653 mmHg 51%
17:00 +23°C° 0 mm 2 mps 653 mmHg 56%
18:00 +20°C° 0 mm 2 mps 652 mmHg 60%
19:00 +19°C° 0 mm 2 mps 652 mmHg 65%
20:00 +19°C° 0 mm 1 mps 652 mmHg 64%
21:00 +18°C° 0 mm 1 mps 652 mmHg 64%
22:00 +18°C° 0 mm 1 mps 652 mmHg 63%
23:00 +16°C° 0 mm 1 mps 652 mmHg 63%

12 Julio, Domingo

Tiempo Temperatura Precipitaciones Viento Presión Humedad
00:00 +16°C° 0 mm 1 mps 651 mmHg 63%
01:00 +16°C° 0 mm 1 mps 651 mmHg 63%
02:00 +15°C° 0 mm 1 mps 651 mmHg 64%
03:00 +15°C° 0 mm 1 mps 651 mmHg 64%
04:00 +15°C° 0 mm 1 mps 651 mmHg 64%
05:00 +18°C° 0 mm 1 mps 651 mmHg 60%
06:00 +19°C° 0 mm 1 mps 652 mmHg 55%
07:00 +21°C° 0 mm 1 mps 653 mmHg 51%
08:00 +22°C° 0 mm 1 mps 653 mmHg 46%
09:00 +24°C° 0 mm 2 mps 654 mmHg 42%
10:00 +25°C° 0 mm 2 mps 654 mmHg 37%
11:00 +26°C° 0 mm 3 mps 654 mmHg 36%
12:00 +26°C° 0 mm 3 mps 654 mmHg 36%
13:00 +26°C° 0 mm 4 mps 654 mmHg 35%
14:00 +26°C° 0 mm 4 mps 654 mmHg 38%
15:00 +25°C° 0 mm 4 mps 654 mmHg 41%
16:00 +25°C° 0 mm 4 mps 654 mmHg 44%
17:00 +22°C° 0 mm 4 mps 653 mmHg 53%
18:00 +20°C° 0 mm 4 mps 653 mmHg 63%
19:00 +18°C° 0 mm 3 mps 652 mmHg 72%
20:00 +17°C° 0 mm 3 mps 652 mmHg 76%
21:00 +17°C° 0 mm 3 mps 652 mmHg 80%
22:00 +16°C° 0 mm 2 mps 652 mmHg 83%
23:00 +15°C° 0 mm 2 mps 652 mmHg 84%
Mostrar más